Buffalo, NY

10:11 PM EDT on April 26, 2018 (GMT -0400)
Buffalo Niagara International

Weather History for KBUF - October, 2011

Change the Weather History Date:

Friday, October 21, 2011

  Actual Average Record
Temperature  
Mean Temperature 48 °F 49 °F  
Max Temperature 50 °F 57 °F 81 °F (1894)
Min Temperature 46 °F 41 °F 27 °F (1952)
Degree Days  
Heating Degree Days 17 16  
Month to date heating degree days 185 266  
Since 1 July heating degree days 262 428  
Cooling Degree Days 0 0  
Month to date cooling degree days 4 0  
Year to date cooling degree days 776 540  
Moisture  
Dew Point 41 °F    
Average Humidity 80    
Maximum Humidity 93    
Minimum Humidity 66    
Precipitation  
Precipitation 0.18 in 0.10 in 1.30 in (2016)
Month to date precipitation 4.30 2.42  
Year to date precipitation 41.93 31.48  
Snow  
Snow 0.00 in 0.00 in 1.50 in (1925)
Month to date snowfall 0.0 0.4  
Since 1 July snowfall 0.0 0.4  
Since 1 September snowfall 0.0 0.4  
Snow Depth 0.00 in    
Sea Level Pressure  
Sea Level Pressure 29.76 in    
Wind  
Wind Speed 14 mph (West)    
Max Wind Speed 23 mph    
Max Gust Speed 31 mph    
Visibility 8 miles    
Events Rain    
T = Trace of Precipitation, MM = Missing Value Source: NWS Daily Summary

Daily Weather History Graph

Daily Weather History Graph

Search for Another Location

Airport or City:

Astronomy

Oct. 21, 2011 Rise Set
Actual Time 7:35 AM EDT 6:23 PM EDT
Civil Twilight 7:06 AM EDT 6:52 PM EDT
Nautical Twilight 6:33 AM EDT 7:24 PM EDT
Astronomical Twilight 6:00 AM EDT 7:57 PM EDT
Moon 1:14 AM EDT (10/21) 3:14 PM EDT (10/21)
Length of Visible Light 11h 45m
Length of Day
10h 47m
Waning Crescent, 34% of the Moon is Illuminated
Oct 21
Waning Crescent
Oct 26
New
Nov 2
First Quarter
Nov 10
Full
Nov 18
Last Quarter

Hourly Weather History & Observations

Time (EDT) Temp. Windchill Dew Point Humidity Pressure Visibility Wind Dir Wind Speed Gust Speed Precip Events Conditions
12:13 AM 46.4 °F 41.1 °F 42.8 °F 87% 29.49 in 2.0 mi WSW 11.5 mph 19.6 mph 0.11 in Rain Heavy Rain
12:39 AM 46.4 °F 39.8 °F 42.8 °F 87% 29.50 in 6.0 mi SW 16.1 mph 24.2 mph 0.24 in Rain Light Rain
12:54 AM 46.4 °F 42.4 °F 42.8 °F 87% 29.50 in 3.0 mi SW 8.1 mph 18.4 mph N/A Rain Heavy Rain
1:19 AM 48.2 °F - 44.6 °F 87% 29.52 in 5.0 mi WSW 18.4 mph 26.5 mph 0.05 in Rain Light Rain
1:42 AM 48.2 °F - 44.6 °F 87% 29.53 in 2.5 mi West 15.0 mph 24.2 mph 0.06 in Rain Light Rain
1:54 AM 46.9 °F - 44.1 °F 90% 29.54 in 2.5 mi West 19.6 mph 29.9 mph 0.07 in Rain Rain
1:59 AM 46.4 °F 39.5 °F 44.6 °F 93% 29.54 in 2.0 mi WSW 17.3 mph 29.9 mph 0.01 in Rain Light Rain
2:32 AM 48.2 °F - 44.6 °F 87% 29.55 in 2.0 mi West 21.9 mph 26.5 mph 0.04 in Rain Light Rain
2:54 AM 48.0 °F - 44.1 °F 86% 29.57 in 2.5 mi West 19.6 mph 25.3 mph 0.06 in Rain Rain
3:51 AM 46.4 °F 39.5 °F 44.6 °F 93% 29.59 in 4.0 mi West 17.3 mph 25.3 mph 0.05 in Rain Light Rain
3:54 AM 46.9 °F - 44.1 °F 90% 29.61 in 4.0 mi West 17.3 mph 24.2 mph 0.05 in Rain Light Rain
4:48 AM 46.4 °F 39.8 °F 42.8 °F 87% 29.62 in 7.0 mi WSW 16.1 mph 25.3 mph 0.02 in Rain Light Rain
4:54 AM 46.4 °F 38.7 °F 42.8 °F 87% 29.63 in 7.0 mi West 20.7 mph 25.3 mph N/A Rain Light Rain
5:54 AM 46.9 °F - 42.1 °F 83% 29.68 in 10.0 mi West 16.1 mph 21.9 mph 0.01 in   Overcast
6:54 AM 46.9 °F - 41.0 °F 80% 29.71 in 10.0 mi WSW 15.0 mph - N/A   Mostly Cloudy
7:54 AM 46.4 °F 40.4 °F 39.2 °F 76% 29.74 in 10.0 mi West 13.8 mph 21.9 mph N/A   Mostly Cloudy
8:54 AM 46.9 °F - 39.9 °F 77% 29.78 in 10.0 mi West 12.7 mph - N/A   Mostly Cloudy
9:54 AM 48.0 °F - 39.9 °F 74% 29.81 in 10.0 mi West 20.7 mph 25.3 mph N/A   Mostly Cloudy
10:54 AM 48.9 °F - 39.0 °F 69% 29.83 in 10.0 mi West 17.3 mph 23.0 mph N/A   Overcast
11:54 AM 48.9 °F - 39.0 °F 69% 29.85 in 10.0 mi West 16.1 mph - N/A   Overcast
12:34 PM 50.0 °F - 39.2 °F 66% 29.84 in 10.0 mi West 17.3 mph 24.2 mph N/A   Overcast
12:54 PM 50.0 °F - 39.0 °F 66% 29.86 in 10.0 mi West 11.5 mph 20.7 mph N/A   Overcast
1:54 PM 50.0 °F - 39.0 °F 66% 29.86 in 10.0 mi West 15.0 mph 21.9 mph N/A   Overcast
2:54 PM 50.0 °F - 39.0 °F 66% 29.88 in 10.0 mi West 15.0 mph 21.9 mph 0.00 in   Overcast
3:54 PM 48.9 °F - 39.9 °F 71% 29.90 in 10.0 mi West 10.4 mph 20.7 mph 0.00 in   Overcast
4:02 PM 48.2 °F - 39.2 °F 71% 29.89 in 10.0 mi West 15.0 mph 21.9 mph N/A   Overcast
4:54 PM 50.0 °F - 39.9 °F 68% 29.93 in 10.0 mi West 9.2 mph - 0.00 in   Mostly Cloudy
5:54 PM 48.0 °F - 39.0 °F 71% 29.95 in 10.0 mi West 11.5 mph - N/A   Overcast
6:54 PM 48.0 °F - 39.9 °F 74% 29.97 in 10.0 mi West 11.5 mph - 0.00 in Rain Light Rain
7:54 PM 46.9 °F - 41.0 °F 80% 29.99 in 10.0 mi West 9.2 mph - 0.00 in   Overcast
8:54 PM 46.0 °F 40.6 °F 39.9 °F 79% 30.01 in 10.0 mi WNW 11.5 mph - 0.00 in Rain Light Rain
9:54 PM 46.0 °F 41.4 °F 39.9 °F 79% 30.02 in 10.0 mi West 9.2 mph 17.3 mph 0.00 in   Overcast
10:54 PM 46.0 °F 41.0 °F 39.0 °F 76% 30.03 in 10.0 mi West 10.4 mph - N/A   Overcast
11:54 PM 46.0 °F 41.0 °F 37.9 °F 73% 30.04 in 10.0 mi West 10.4 mph - N/A   Overcast